This demonstration page uses our WeatherBlox Daily Observations layout. Learn more.

Hourly Observations for April 8, 2016

Temp ( °F °C ) Dew Point ( °F °C ) Humidity (%) Winds ( mph kmh ) Pressure ( in mb ) Visibility ( mi km ) Precip ( " mm )
12:15 am 00:15 Clear 39 4 15 -9.4 37 37 WNW 7 11 30.18 1022 10 16.0934 0 0
12:35 am 00:35 Clear 39 3.7 15 -9.6 38 38 WNW 8 13 30.21 1023 10 16.0934 0 0
12:55 am 00:55 Clear 39 3.7 14 -9.8 37 37 WNW 7 11 30.21 1023 10 16.0934 0 0
1:15 am 01:15 Clear 35 1.9 15 -9.5 43 43 WNW 6 9 30.21 1023 10 16.0934 0 0
1:35 am 01:35 Clear 36 2.2 15 -9.5 42 42 WNW 7 11 30.21 1023 10 16.0934 0 0
1:55 am 01:55 Clear 35 1.7 15 -9.2 45 45 W 9 15 30.21 1023 10 16.0934 0 0
2:15 am 02:15 Clear 38 3.6 17 -8.6 41 41 W 8 13 30.24 1024 10 16.0934 0 0
2:35 am 02:35 Clear 39 3.8 17 -8.6 40 40 WNW 8 13 30.24 1024 10 16.0934 0 0
2:55 am 02:55 Clear 37 3 16 -8.8 42 42 WNW 7 11 30.24 1024 10 16.0934 0 0
3:15 am 03:15 Clear 36 2.2 17 -8.3 46 46 NNW 8 13 30.24 1024 10 16.0934 0 0
3:35 am 03:35 Clear 37 3 17 -8.5 43 43 NNW 9 15 30.24 1024 10 16.0934 0 0
3:55 am 03:55 Clear 37 2.7 17 -8.3 45 45 NNW 8 13 30.24 1024 10 16.0934 0 0
4:15 am 04:15 Clear 36 2.4 17 -8.4 45 45 NW 8 13 30.24 1024 10 16.0934 0 0
4:35 am 04:35 Clear 33 0.3 17 -8.3 53 53 NW 7 11 30.27 1025 10 16.0934 0 0
4:55 am 04:55 Clear 32 0 18 -8 55 55 N 7 11 30.27 1025 10 16.0934 0 0
5:15 am 05:15 Clear 32 0.1 17 -8.1 54 54 NW 6 9 30.27 1025 10 16.0934 0 0
5:35 am 05:35 Clear 32 -0.2 17 -8.1 56 56 WNW 5 7 30.27 1025 10 16.0934 0 0
5:55 am 05:55 Clear 31 -0.3 18 -7.8 57 57 WNW 6 9 30.27 1025 10 16.0934 0 0
6:15 am 06:15 Clear 31 -0.3 18 -7.7 58 58 W 6 9 30.27 1025 10 16.0934 0 0
6:35 am 06:35 Clear 31 -0.5 18 -7.7 59 59 WNW 7 11 30.27 1025 10 16.0934 0 0
6:55 am 06:55 Partly Cloudy 29 -1.6 18 -8 62 62 NW 7 11 30.27 1025 10 16.0934 0 0
7:15 am 07:15 Mostly Cloudy 29 -1.6 18 -7.7 64 64 Calm 30.27 1025 10 16.0934 0 0
7:35 am 07:35 Cloudy 31 -0.6 19 -7 62 62 NW 3 6 30.27 1025 10 16.0934 0 0
7:55 am 07:55 Cloudy 33 0.4 21 -6.2 62 62 WSW 6 9 30.27 1025 10 16.0934 0 0
8:15 am 08:15 Cloudy 37 3 21 -6.2 51 51 WSW 6 9 30.27 1025 10 16.0934 0 0
8:35 am 08:35 Cloudy 38 3.2 21 -6 51 51 WSW 5 7 30.27 1025 10 16.0934 0 0
8:55 am 08:55 Cloudy 39 4 22 -5.6 50 50 W 8 13 30.27 1025 10 16.0934 0 0
9:15 am 09:15 Mostly Cloudy 42 5.6 23 -5.2 46 46 W 6 9 30.21 1023 10 16.0934 0 0
9:35 am 09:35 Partly Cloudy 46 7.5 22 -5.4 40 40 W 6 9 30.18 1022 10 16.0934 0 0
9:55 am 09:55 Sunny 48 8.8 22 -5.6 36 36 W 8 13 30.21 1023 10 16.0934 0 0
10:15 am 10:15 Sunny 51 10.3 21 -5.9 32 32 NW 6 9 30.21 1023 10 16.0934 0 0
10:35 am 10:35 Sunny 53 11.6 20 -6.5 28 28 NW 7 11 30.18 1022 10 16.0934 0 0
10:55 am 10:55 Sunny 54 12.3 21 -6.3 27 27 NNW 8 13 30.18 1022 10 16.0934 0 0
11:15 am 11:15 Sunny 56 13.1 20 -6.4 25 25 N 9 15 30.18 1022 10 16.0934 0 0
11:35 am 11:35 Sunny 56 13.6 21 -6.3 25 25 WNW 6 9 30.18 1022 10 16.0934 0 0
11:55 am 11:55 Sunny 57 13.9 21 -6.2 24 24 NW 7 11 30.18 1022 10 16.0934 0 0
12:15 pm 12:15 Sunny 58 14.5 20 -6.5 23 23 NW 9 15 30.12 1020 10 16.0934 0 0
12:35 pm 12:35 Sunny 59 15 21 -6 23 23 WNW 12 19 30.12 1020 10 16.0934 0 0
12:55 pm 12:55 Sunny 60 15.5 21 -6.1 22 22 WNW 8 13 30.12 1020 10 16.0934 0 0
1:15 pm 13:15 Sunny 62 16.5 22 -5.4 22 22 NW 14 22 30.09 1019 10 16.0934 0 0
1:35 pm 13:35 Sunny 62 16.4 22 -5.4 22 22 NW 10 17 30.09 1019 10 16.0934 0 0
1:55 pm 13:55 Sunny 63 17.4 23 -4.9 22 22 NNW 14 22 30.06 1018 10 16.0934 0 0
2:15 pm 14:15 Sunny 63 17.4 24 -4.6 22 22 NNW 15 24 30.06 1018 10 16.0934 0 0
2:35 pm 14:35 Sunny 64 17.9 23 -4.8 21 21 WNW 8 13 30.06 1018 10 16.0934 0 0
2:55 pm 14:55 Sunny 65 18.1 23 -4.9 21 21 NNW 10 17 30.06 1018 10 16.0934 0 0
3:15 pm 15:15 Sunny 66 18.7 24 -4.7 20 20 NW 8 13 30.06 1018 10 16.0934 0 0
3:35 pm 15:35 Sunny 65 18.6 24 -4.5 21 21 NW 12 19 30.06 1018 10 16.0934 0 0
3:55 pm 15:55 Sunny 66 18.8 24 -4.6 20 20 N 9 15 30.03 1017 10 16.0934 0 0
4:15 pm 16:15 Sunny 66 18.7 23 -4.9 20 20 N 5 7 30.03 1017 10 16.0934 0 0
4:35 pm 16:35 Sunny 67 19.2 24 -4.4 20 20 NW 7 11 30.03 1017 10 16.0934 0 0
4:55 pm 16:55 Sunny 66 19.1 24 -4.7 20 20 N 14 22 30.03 1017 10 16.0934 0 0
5:15 pm 17:15 Sunny 67 19.2 24 -4.4 20 20 N 12 19 30.03 1017 10 16.0934 0 0
5:35 pm 17:35 Sunny 65 18.2 24 -4.5 21 21 NNE 12 19 30.03 1017 10 16.0934 0 0
5:55 pm 17:55 Sunny 65 18.1 24 -4.4 21 21 NNE 10 17 30.03 1017 10 16.0934 0 0
6:15 pm 18:15 Sunny 63 17.2 25 -3.7 24 24 NE 13 20 30.03 1017 10 16.0934 0 0
6:35 pm 18:35 Sunny 63 17 24 -4.3 23 23 NNE 13 20 30.03 1017 10 16.0934 0 0
6:55 pm 18:55 Sunny 62 16.5 25 -4 24 24 NNE 15 24 30.06 1018 10 16.0934 0 0
7:15 pm 19:15 Sunny 60 15.7 24 -4.3 25 25 NNE 14 22 30.06 1018 10 16.0934 0 0
7:35 pm 19:35 Sunny 59 14.9 24 -4.5 26 26 NNE 14 22 30.06 1018 10 16.0934 0 0
7:55 pm 19:55 Sunny 57 13.8 24 -4.7 28 28 NNE 13 20 30.06 1018 10 16.0934 0 0
8:15 pm 20:15 Clear 54 12.2 23 -4.8 30 30 NE 10 17 30.09 1019 10 16.0934 0 0
8:35 pm 20:35 Clear 52 11 23 -5 32 32 ENE 13 20 30.09 1019 10 16.0934 0 0
8:55 pm 20:55 Clear 49 9.3 23 -5.1 36 36 ENE 12 19 30.12 1020 10 16.0934 0 0
9:15 pm 21:15 Clear 48 8.8 24 -4.4 39 39 ENE 15 24 30.15 1021 10 16.0934 0 0
9:35 pm 21:35 Clear 47 8.2 25 -4.1 42 42 E 10 17 30.15 1021 10 16.0934 0 0
9:55 pm 21:55 Clear 45 7.2 24 -4.2 45 45 ENE 10 17 30.15 1021 10 16.0934 0 0
10:15 pm 22:15 Clear 43 6.2 25 -4.1 48 48 ENE 10 17 30.18 1022 10 16.0934 0 0
10:35 pm 22:35 Clear 42 5.8 25 -4.1 49 49 ENE 9 15 30.18 1022 10 16.0934 0 0
10:55 pm 22:55 Clear 41 5.2 24 -4.3 51 51 ENE 10 17 30.18 1022 10 16.0934 0 0
11:15 pm 23:15 Clear 40 4.7 24 -4.3 52 52 E 9 15 30.18 1022 10 16.0934 0 0
11:35 pm 23:35 Clear 41 5 24 -4.2 52 52 E 10 17 30.18 1022 10 16.0934 0 0
11:55 pm 23:55 Clear 40 4.2 24 -4.2 55 55 E 8 13 30.18 1022 10 16.0934 0 0

Powered by AerisWeather